Madison, MN

2:29 AM CST on December 11, 2019 (GMT -0600)
Madison-Lac Qui Parle County

Weather History for KDXX - October, 2019

Change the Weather History Date:

Tuesday, October 15, 2019

  Actual Average (WUND) Record (WUND)
Temperature  
Mean Temperature 40 °F -  
Max Temperature 46 °F - - (-1)
Min Temperature 33 °F - - (-1)
Degree Days  
Heating Degree Days 26    
Moisture  
Dew Point 37 °F    
Average Humidity 83    
Maximum Humidity 100    
Minimum Humidity 71    
Precipitation  
Precipitation 0.00 in - - ()
Sea Level Pressure  
Sea Level Pressure 29.96 in    
Wind  
Wind Speed 9 mph (NW)    
Max Wind Speed 20 mph    
Max Gust Speed 29 mph    
Visibility 10 miles    
Events Rain    
Averages and records for this station are not official NWS values.
T = Trace of Precipitation, MM = Missing Value Source: NWS Daily Summary

Daily Weather History Graph

Daily Weather History Graph

Search for Another Location

Airport or City:

Astronomy

Oct. 15, 2019 Rise Set
Actual Time 7:40 AM CDT 6:40 PM CDT
Civil Twilight 7:10 AM CDT 7:09 PM CDT
Nautical Twilight 6:36 AM CDT 7:43 PM CDT
Astronomical Twilight 6:02 AM CDT 8:17 PM CDT
Moon 7:57 PM CDT (10/15) 9:14 AM CDT (10/15)
Length of Visible Light 11h 59m
Length of Day
10h 59m
Full, 97% of the Moon is Illuminated
Oct 15
Full
Oct 21
Last Quarter
Oct 27
New
Nov 4
First Quarter
Nov 12
Full

Hourly Weather History & Observations

Time (CDT) Temp. Windchill Dew Point Humidity Pressure Visibility Wind Dir Wind Speed Gust Speed Precip Events Conditions
12:16 AM 41.0 °F 39.0 °F 37.4 °F 87% 29.82 in 10.0 mi NW 3.5 mph - N/A   Overcast
12:35 AM 42.8 °F 40.1 °F 37.4 °F 81% 29.82 in 10.0 mi NNW 4.6 mph - N/A   Overcast
12:36 AM 42.8 °F 41.1 °F 37.4 °F 81% 29.82 in 10.0 mi NNW 3.5 mph - N/A   Overcast
12:55 AM 41.0 °F 38.0 °F 35.6 °F 81% 29.81 in 10.0 mi North 4.6 mph - N/A   Scattered Clouds
12:56 AM 41.0 °F 38.0 °F 35.6 °F 81% 29.81 in 10.0 mi North 4.6 mph - N/A   Scattered Clouds
1:19 AM 37.4 °F 33.8 °F 35.6 °F 93% 29.81 in 10.0 mi NW 4.6 mph - N/A   Clear
1:36 AM 37.4 °F 33.8 °F 35.6 °F 93% 29.80 in 10.0 mi North 4.6 mph - N/A   Clear
1:55 AM 37.4 °F 31.4 °F 35.6 °F 93% 29.81 in 10.0 mi NNW 8.1 mph - N/A   Clear
2:15 AM 37.4 °F 31.4 °F 35.6 °F 93% 29.82 in 10.0 mi NW 8.1 mph - N/A   Clear
2:16 AM 37.4 °F 31.4 °F 35.6 °F 93% 29.82 in 10.0 mi NW 8.1 mph - N/A   Clear
2:38 AM 37.4 °F 32.8 °F 35.6 °F 93% 29.82 in 10.0 mi NW 5.8 mph - N/A   Clear
2:57 AM 35.6 °F 31.7 °F 35.6 °F 100% 29.82 in 10.0 mi NW 4.6 mph - N/A   Clear
3:15 AM 35.6 °F 30.7 °F 35.6 °F 100% 29.82 in 10.0 mi WNW 5.8 mph - N/A   Clear
3:16 AM 35.6 °F 30.7 °F 35.6 °F 100% 29.82 in 10.0 mi WNW 5.8 mph - N/A   Clear
3:35 AM 35.6 °F 28.6 °F 35.6 °F 100% 29.83 in 10.0 mi NW 9.2 mph - N/A   Clear
3:58 AM 37.4 °F 31.4 °F 35.6 °F 93% 29.84 in 10.0 mi NW 8.1 mph - N/A   Clear
4:16 AM 37.4 °F 32.1 °F 35.6 °F 93% 29.83 in 10.0 mi NNW 6.9 mph - N/A   Clear
4:35 AM 37.4 °F 32.8 °F 35.6 °F 93% 29.84 in 10.0 mi WNW 5.8 mph - N/A   Scattered Clouds
4:36 AM 37.4 °F 32.8 °F 35.6 °F 93% 29.84 in 10.0 mi WNW 5.8 mph - N/A   Scattered Clouds
4:55 AM 35.6 °F 30.7 °F 35.6 °F 100% 29.84 in 10.0 mi WNW 5.8 mph - N/A   Clear
4:56 AM 35.6 °F 30.7 °F 35.6 °F 100% 29.84 in 10.0 mi WNW 5.8 mph - N/A   Clear
5:15 AM 35.6 °F 29.9 °F 35.6 °F 100% 29.85 in 10.0 mi WNW 6.9 mph - N/A   Clear
5:20 AM 35.6 °F 29.9 °F 35.6 °F 100% 29.85 in 10.0 mi WNW 6.9 mph - N/A   Clear
5:37 AM 35.6 °F 29.9 °F 33.8 °F 93% 29.85 in 10.0 mi NW 6.9 mph - N/A   Clear
5:55 AM 35.6 °F 30.7 °F 33.8 °F 93% 29.85 in 10.0 mi WNW 5.8 mph - N/A   Clear
6:15 AM 35.6 °F 29.9 °F 33.8 °F 93% 29.85 in 10.0 mi WNW 6.9 mph - N/A   Clear
6:16 AM 35.6 °F 30.7 °F 33.8 °F 93% 29.85 in 10.0 mi WNW 5.8 mph - N/A   Clear
6:35 AM 35.6 °F 30.7 °F 33.8 °F 93% 29.86 in 10.0 mi WNW 5.8 mph - N/A   Clear
6:36 AM 35.6 °F 30.7 °F 33.8 °F 93% 29.86 in 10.0 mi WNW 5.8 mph - N/A   Clear
6:59 AM 33.8 °F 27.7 °F 33.8 °F 100% 29.87 in 10.0 mi West 6.9 mph - N/A   Clear
7:16 AM 33.8 °F 28.6 °F 33.8 °F 100% 29.88 in 10.0 mi West 5.8 mph - N/A   Clear
7:36 AM 35.6 °F 29.9 °F 33.8 °F 93% 29.89 in 10.0 mi WNW 6.9 mph - N/A   Scattered Clouds
7:55 AM 37.4 °F 30.3 °F 35.6 °F 93% 29.89 in 10.0 mi WNW 10.4 mph - N/A   Overcast
8:15 AM 41.0 °F 34.3 °F 37.4 °F 87% 29.90 in 10.0 mi WNW 11.5 mph - N/A   Mostly Cloudy
8:19 AM 41.0 °F 34.3 °F 37.4 °F 87% 29.90 in 10.0 mi WNW 11.5 mph 17.3 mph N/A   Mostly Cloudy
8:37 AM 42.8 °F 36.2 °F 37.4 °F 81% 29.90 in 10.0 mi WNW 12.7 mph 21.9 mph N/A   Overcast
8:56 AM 42.8 °F 36.2 °F 39.2 °F 87% 29.91 in 10.0 mi WNW 12.7 mph 17.3 mph N/A   Overcast
9:15 AM 42.8 °F 36.2 °F 39.2 °F 87% 29.91 in 10.0 mi WNW 12.7 mph 16.1 mph N/A   Overcast
9:16 AM 42.8 °F 36.2 °F 39.2 °F 87% 29.91 in 10.0 mi WNW 12.7 mph 18.4 mph N/A   Overcast
9:35 AM 44.6 °F 38.1 °F 39.2 °F 81% 29.92 in 10.0 mi NW 13.8 mph 19.6 mph N/A   Overcast
9:36 AM 44.6 °F 37.8 °F 39.2 °F 81% 29.92 in 10.0 mi NW 15.0 mph 19.6 mph N/A   Overcast
9:58 AM 44.6 °F 37.4 °F 37.4 °F 76% 29.92 in 10.0 mi NW 16.1 mph 24.2 mph N/A   Overcast
10:16 AM 44.6 °F 37.4 °F 37.4 °F 76% 29.92 in 10.0 mi NW 16.1 mph 23.0 mph N/A   Overcast
10:35 AM 44.6 °F 36.6 °F 37.4 °F 76% 29.94 in 10.0 mi NW 19.6 mph 27.6 mph N/A   Overcast
10:55 AM 44.6 °F 36.9 °F 37.4 °F 76% 29.94 in 10.0 mi NW 18.4 mph 28.8 mph N/A   Overcast
10:56 AM 44.6 °F 36.9 °F 37.4 °F 76% 29.94 in 10.0 mi NW 18.4 mph 28.8 mph N/A   Overcast
11:15 AM 46.4 °F 39.2 °F 37.4 °F 71% 29.95 in 10.0 mi NNW 18.4 mph 24.2 mph N/A   Overcast
11:19 AM 46.4 °F 39.5 °F 37.4 °F 71% 29.95 in 10.0 mi NW 17.3 mph 23.0 mph N/A   Overcast
11:38 AM 46.4 °F 39.0 °F 37.4 °F 71% 29.95 in 10.0 mi NNW 19.6 mph 24.2 mph N/A   Overcast
11:55 AM 46.4 °F 39.5 °F 37.4 °F 71% 29.96 in 10.0 mi NW 17.3 mph 23.0 mph N/A   Overcast
12:15 PM 44.6 °F 37.2 °F 37.4 °F 76% 29.96 in 10.0 mi NW 17.3 mph 21.9 mph N/A   Overcast
12:35 PM 44.6 °F 38.8 °F 37.4 °F 76% 29.97 in 10.0 mi NW 11.5 mph 24.2 mph N/A   Overcast
12:36 PM 44.6 °F 38.4 °F 37.4 °F 76% 29.97 in 10.0 mi NW 12.7 mph 23.0 mph N/A   Overcast
12:58 PM 46.4 °F 40.7 °F 37.4 °F 71% 29.97 in 10.0 mi NW 12.7 mph 23.0 mph N/A   Overcast
1:17 PM 46.4 °F 40.7 °F 37.4 °F 71% 29.98 in 10.0 mi NW 12.7 mph 20.7 mph N/A   Overcast
1:36 PM 46.4 °F 39.5 °F 37.4 °F 71% 29.98 in 10.0 mi NW 17.3 mph 23.0 mph N/A   Overcast
1:55 PM 46.4 °F 40.1 °F 37.4 °F 71% 29.98 in 10.0 mi NW 15.0 mph 23.0 mph N/A   Overcast
1:56 PM 46.4 °F 40.4 °F 37.4 °F 71% 29.98 in 10.0 mi NW 13.8 mph 23.0 mph N/A   Overcast
2:15 PM 46.4 °F 40.1 °F 37.4 °F 71% 29.99 in 10.0 mi NW 15.0 mph 23.0 mph N/A   Overcast
2:37 PM 44.6 °F 36.9 °F 37.4 °F 76% 29.99 in 10.0 mi NNW 18.4 mph 21.9 mph N/A Rain Light Rain
2:56 PM 44.6 °F 37.2 °F 37.4 °F 76% 30.00 in 10.0 mi NNW 17.3 mph 21.9 mph N/A   Overcast
3:15 PM 44.6 °F 37.8 °F 37.4 °F 76% 30.01 in 10.0 mi NW 15.0 mph 21.9 mph N/A   Overcast
3:16 PM 44.6 °F 38.1 °F 37.4 °F 76% 30.01 in 10.0 mi NW 13.8 mph - N/A   Overcast
3:35 PM 44.6 °F 38.1 °F 37.4 °F 76% 30.02 in 10.0 mi NNW 13.8 mph 20.7 mph N/A   Overcast
3:36 PM 44.6 °F 38.1 °F 37.4 °F 76% 30.02 in 10.0 mi NNW 13.8 mph 19.6 mph N/A   Overcast
3:59 PM 44.6 °F 37.8 °F 37.4 °F 76% 30.03 in 10.0 mi NNW 15.0 mph 20.7 mph N/A   Overcast
4:16 PM 44.6 °F 37.4 °F 37.4 °F 76% 30.04 in 10.0 mi NNW 16.1 mph - N/A   Overcast
4:36 PM 44.6 °F 38.8 °F 37.4 °F 76% 30.05 in 10.0 mi NW 11.5 mph 20.7 mph N/A   Overcast
4:55 PM 44.6 °F 38.4 °F 37.4 °F 76% 30.06 in 10.0 mi NW 12.7 mph 16.1 mph N/A   Overcast
5:15 PM 44.6 °F 38.4 °F 39.2 °F 81% 30.06 in 10.0 mi NW 12.7 mph 20.7 mph N/A   Overcast
5:19 PM 44.6 °F 38.8 °F 39.2 °F 81% 30.06 in 10.0 mi NW 11.5 mph 20.7 mph N/A   Overcast
5:38 PM 44.6 °F 38.4 °F 39.2 °F 81% 30.07 in 10.0 mi NW 12.7 mph 17.3 mph N/A   Overcast
5:55 PM 44.6 °F 38.4 °F 39.2 °F 81% 30.07 in 10.0 mi NNW 12.7 mph 19.6 mph N/A   Overcast
6:15 PM 44.6 °F 38.8 °F 39.2 °F 81% 30.09 in 10.0 mi NW 11.5 mph - N/A   Overcast
6:16 PM 44.6 °F 38.8 °F 39.2 °F 81% 30.09 in 10.0 mi NW 11.5 mph - N/A   Overcast
6:35 PM 44.6 °F 38.8 °F 39.2 °F 81% 30.10 in 10.0 mi NW 11.5 mph - N/A   Overcast
6:58 PM 44.6 °F 38.8 °F 39.2 °F 81% 30.10 in 10.0 mi NW 11.5 mph 16.1 mph N/A   Overcast
7:16 PM 44.6 °F 38.8 °F 39.2 °F 81% 30.10 in 10.0 mi NW 11.5 mph - N/A   Overcast
7:35 PM 44.6 °F 38.8 °F 39.2 °F 81% 30.10 in 10.0 mi NW 11.5 mph 18.4 mph N/A   Overcast
7:55 PM 44.6 °F 37.2 °F 39.2 °F 81% 30.11 in 10.0 mi NW 17.3 mph 24.2 mph N/A   Overcast
7:56 PM 44.6 °F 37.2 °F 39.2 °F 81% 30.11 in 10.0 mi NNW 17.3 mph 24.2 mph N/A   Overcast
8:15 PM 44.6 °F 36.6 °F 37.4 °F 76% 30.12 in 10.0 mi NNW 19.6 mph 23.0 mph N/A   Overcast
8:20 PM 44.6 °F 36.6 °F 37.4 °F 76% 30.12 in 10.0 mi NNW 19.6 mph 25.3 mph N/A   Overcast
8:37 PM 44.6 °F 37.8 °F 37.4 °F 76% 30.13 in 10.0 mi NNW 15.0 mph 23.0 mph N/A   Overcast
8:55 PM 44.6 °F 38.1 °F 37.4 °F 76% 30.13 in 10.0 mi NNW 13.8 mph 19.6 mph N/A   Overcast
9:15 PM 44.6 °F 38.4 °F 37.4 °F 76% 30.14 in 10.0 mi NW 12.7 mph 18.4 mph N/A   Overcast
9:35 PM 44.6 °F 38.4 °F 37.4 °F 76% 30.15 in 10.0 mi NW 12.7 mph 19.6 mph N/A   Overcast
9:36 PM 44.6 °F 38.1 °F 37.4 °F 76% 30.15 in 10.0 mi NW 13.8 mph 19.6 mph N/A   Overcast
10:17 PM 42.8 °F 36.2 °F 37.4 °F 81% 30.15 in 10.0 mi NW 12.7 mph - N/A   Overcast
10:36 PM 42.8 °F 36.2 °F 37.4 °F 81% 30.16 in 10.0 mi NNW 12.7 mph - N/A   Overcast
10:55 PM 42.8 °F 35.4 °F 35.6 °F 76% 30.16 in 10.0 mi NNW 15.0 mph 21.9 mph N/A   Overcast
10:56 PM 42.8 °F 35.1 °F 35.6 °F 76% 30.16 in 10.0 mi NNW 16.1 mph 21.9 mph N/A   Overcast
11:15 PM 42.8 °F 36.2 °F 35.6 °F 76% 30.17 in 10.0 mi NNW 12.7 mph - N/A   Overcast
11:37 PM 42.8 °F 36.6 °F 35.6 °F 76% 30.17 in 10.0 mi NW 11.5 mph 19.6 mph N/A   Overcast
11:56 PM 42.8 °F 36.2 °F 35.6 °F 76% 30.17 in 10.0 mi NW 12.7 mph 18.4 mph N/A   Overcast